Time,TemperatureF,DewpointF,PressureIn,WindDirection,WindDirectionDegrees,WindSpeedMPH,WindSpeedGustMPH,Humidity,HourlyPrecipIn,Conditions,Clouds,dailyrainin,SolarRadiationWatts/m^2,SoftwareType,DateUTC
2013-03-04 00:00:00,29.5,18.8,30.09,West,280,0.0,0.0,64,0.00,,,0.00,0,Wunderground v.1.15,2013-03-04 05:00:00,
2013-03-04 00:02:00,29.5,18.8,30.09,West,280,0.0,0.0,64,0.00,,,0.00,0,Wunderground v.1.15,2013-03-04 05:02:00,
2013-03-04 00:08:00,29.4,18.7,30.10,West,280,0.0,0.0,64,0.00,,,0.00,0,Wunderground v.1.15,2013-03-04 05:08:00,
2013-03-04 00:10:00,29.3,18.6,30.10,West,280,0.0,0.0,64,0.00,,,0.00,0,Wunderground v.1.15,2013-03-04 05:10:00,
2013-03-04 00:12:00,29.1,18.4,30.10,West,280,0.0,0.0,64,0.00,,,0.00,0,Wunderground v.1.15,2013-03-04 05:12:00,
2013-03-04 00:18:00,29.0,19.1,30.10,West,280,0.0,0.0,66,0.00,,,0.00,0,Wunderground v.1.15,2013-03-04 05:18:00,
2013-03-04 00:24:00,28.7,19.1,30.10,West,280,0.0,0.0,67,0.00,,,0.00,0,Wunderground v.1.15,2013-03-04 05:24:00,
2013-03-04 00:30:00,28.5,18.6,30.10,West,280,0.0,0.0,66,0.00,,,0.00,0,Wunderground v.1.15,2013-03-04 05:30:00,
2013-03-04 00:36:00,28.5,18.9,30.11,West,280,0.0,3.0,67,0.00,,,0.00,0,Wunderground v.1.15,2013-03-04 05:36:00,
2013-03-04 00:42:00,28.4,18.5,30.11,West,280,0.0,3.0,66,0.00,,,0.00,0,Wunderground v.1.15,2013-03-04 05:42:00,
2013-03-04 00:48:00,28.4,18.5,30.11,West,280,0.0,3.0,66,0.00,,,0.00,0,Wunderground v.1.15,2013-03-04 05:48:00,
2013-03-04 00:53:00,28.2,18.6,30.11,West,280,0.0,3.0,67,0.00,,,0.00,0,Wunderground v.1.15,2013-03-04 05:53:00,
2013-03-04 01:00:00,27.9,18.7,30.11,WNW,282,0.0,0.0,68,0.00,,,0.00,0,Wunderground v.1.15,2013-03-04 06:00:00,
2013-03-04 01:06:00,27.9,18.7,30.12,WNW,282,0.0,0.0,68,0.00,,,0.00,0,Wunderground v.1.15,2013-03-04 06:06:00,
2013-03-04 01:12:00,27.8,18.6,30.12,WNW,282,0.0,0.0,68,0.00,,,0.00,0,Wunderground v.1.15,2013-03-04 06:12:00,
2013-03-04 01:17:00,27.6,18.8,30.12,WNW,282,0.0,0.0,69,0.00,,,0.00,0,Wunderground v.1.15,2013-03-04 06:17:00,
2013-03-04 01:24:00,27.5,18.7,30.12,WNW,282,0.0,0.0,69,0.00,,,0.00,0,Wunderground v.1.15,2013-03-04 06:24:00,
2013-03-04 01:30:00,27.5,19.0,30.12,WNW,282,0.0,0.0,70,0.00,,,0.00,0,Wunderground v.1.15,2013-03-04 06:30:00,
2013-03-04 01:35:00,27.3,18.8,30.12,WNW,292,0.0,2.0,70,0.00,,,0.00,0,Wunderground v.1.15,2013-03-04 06:35:00,
2013-03-04 01:42:00,27.0,18.5,30.12,WNW,296,0.0,2.0,70,0.00,,,0.00,0,Wunderground v.1.15,2013-03-04 06:42:00,
2013-03-04 01:48:00,26.9,18.7,30.12,WNW,301,0.0,2.0,71,0.00,,,0.00,0,Wunderground v.1.15,2013-03-04 06:48:00,
2013-03-04 01:54:00,26.7,18.6,30.12,WNW,301,0.0,2.0,71,0.00,,,0.00,0,Wunderground v.1.15,2013-03-04 06:54:00,
2013-03-04 02:00:00,26.7,18.6,30.13,WNW,301,0.0,0.0,71,0.00,,,0.00,0,Wunderground v.1.15,2013-03-04 07:00:00,
2013-03-04 02:06:00,26.4,18.3,30.13,WNW,301,0.0,0.0,71,0.00,,,0.00,0,Wunderground v.1.15,2013-03-04 07:06:00,
2013-03-04 02:12:00,26.3,18.5,30.13,WNW,301,0.0,0.0,72,0.00,,,0.00,0,Wunderground v.1.15,2013-03-04 07:12:00,
2013-03-04 02:17:00,26.1,18.3,30.13,WNW,301,0.0,0.0,72,0.00,,,0.00,0,Wunderground v.1.15,2013-03-04 07:17:00,
2013-03-04 02:24:00,26.0,18.2,30.13,WNW,301,0.0,0.0,72,0.00,,,0.00,0,Wunderground v.1.15,2013-03-04 07:24:00,
2013-03-04 02:30:00,25.8,18.0,30.13,WNW,300,0.0,2.0,72,0.00,,,0.00,0,Wunderground v.1.15,2013-03-04 07:30:00,
2013-03-04 02:36:00,25.8,18.0,30.13,WNW,283,0.0,2.0,72,0.00,,,0.00,0,Wunderground v.1.15,2013-03-04 07:36:00,
2013-03-04 02:42:00,25.8,18.0,30.13,WNW,286,0.0,1.0,72,0.00,,,0.00,0,Wunderground v.1.15,2013-03-04 07:42:00,
2013-03-04 02:48:00,25.8,18.3,30.13,WNW,289,0.0,1.0,73,0.00,,,0.00,0,Wunderground v.1.15,2013-03-04 07:48:00,
2013-03-04 02:54:00,26.0,18.2,30.13,WNW,289,0.0,1.0,72,0.00,,,0.00,0,Wunderground v.1.15,2013-03-04 07:54:00,
2013-03-04 03:00:00,26.0,18.2,30.14,WNW,285,0.0,0.0,72,0.00,,,0.00,0,Wunderground v.1.15,2013-03-04 08:00:00,
2013-03-04 03:06:00,26.1,18.0,30.14,WNW,285,0.0,0.0,71,0.00,,,0.00,0,Wunderground v.1.15,2013-03-04 08:06:00,
2013-03-04 03:11:00,26.1,18.0,30.14,WNW,286,0.0,0.0,71,0.00,,,0.00,0,Wunderground v.1.15,2013-03-04 08:11:00,
2013-03-04 03:18:00,26.1,18.0,30.14,WNW,286,0.0,0.0,71,0.00,,,0.00,0,Wunderground v.1.15,2013-03-04 08:18:00,
2013-03-04 03:23:00,26.1,18.0,30.14,WNW,286,0.0,0.0,71,0.00,,,0.00,0,Wunderground v.1.15,2013-03-04 08:23:00,
2013-03-04 03:30:00,26.0,17.6,30.14,WNW,286,0.0,0.0,70,0.00,,,0.00,0,Wunderground v.1.15,2013-03-04 08:30:00,
2013-03-04 03:36:00,25.8,17.7,30.14,WNW,288,0.0,2.0,71,0.00,,,0.00,0,Wunderground v.1.15,2013-03-04 08:36:00,
2013-03-04 03:42:00,25.8,17.7,30.14,WNW,292,0.0,2.0,71,0.00,,,0.00,0,Wunderground v.1.15,2013-03-04 08:42:00,
2013-03-04 03:48:00,25.8,17.7,30.14,WNW,292,0.0,2.0,71,0.00,,,0.00,0,Wunderground v.1.15,2013-03-04 08:48:00,
2013-03-04 03:54:00,25.8,17.7,30.14,WNW,292,0.0,2.0,71,0.00,,,0.00,0,Wunderground v.1.15,2013-03-04 08:54:00,
2013-03-04 04:00:00,25.7,17.6,30.14,WNW,292,0.0,0.0,71,0.00,,,0.00,0,Wunderground v.1.15,2013-03-04 09:00:00,
2013-03-04 04:06:00,25.6,17.5,30.14,NW,313,0.0,0.0,71,0.00,,,0.00,0,Wunderground v.1.15,2013-03-04 09:06:00,
2013-03-04 04:12:00,25.4,17.6,30.15,WNW,297,0.0,1.0,72,0.00,,,0.00,0,Wunderground v.1.15,2013-03-04 09:12:00,
2013-03-04 04:18:00,25.3,17.5,30.15,WNW,297,0.0,1.0,72,0.00,,,0.00,0,Wunderground v.1.15,2013-03-04 09:18:00,
2013-03-04 04:24:00,25.3,17.5,30.15,WNW,297,0.0,0.0,72,0.00,,,0.00,0,Wunderground v.1.15,2013-03-04 09:24:00,
2013-03-04 04:29:00,25.1,17.7,30.15,WNW,297,0.0,0.0,73,0.00,,,0.00,0,Wunderground v.1.15,2013-03-04 09:29:00,
2013-03-04 04:36:00,25.1,17.3,30.15,West,278,0.0,2.0,72,0.00,,,0.00,0,Wunderground v.1.15,2013-03-04 09:36:00,
2013-03-04 04:42:00,25.1,17.3,30.16,WNW,284,1.0,2.0,72,0.00,,,0.00,0,Wunderground v.1.15,2013-03-04 09:42:00,
2013-03-04 04:48:00,25.0,17.2,30.16,WNW,284,0.0,2.0,72,0.00,,,0.00,0,Wunderground v.1.15,2013-03-04 09:48:00,
2013-03-04 04:53:00,24.8,17.4,30.16,WNW,284,0.0,2.0,73,0.00,,,0.00,0,Wunderground v.1.15,2013-03-04 09:53:00,
2013-03-04 05:00:00,24.7,17.3,30.16,WNW,284,0.0,0.0,73,0.00,,,0.00,0,Wunderground v.1.15,2013-03-04 10:00:00,
2013-03-04 05:06:00,24.7,17.6,30.16,WNW,284,0.0,0.0,74,0.00,,,0.00,0,Wunderground v.1.15,2013-03-04 10:06:00,
2013-03-04 05:12:00,24.5,17.4,30.16,WNW,284,0.0,0.0,74,0.00,,,0.00,0,Wunderground v.1.15,2013-03-04 10:12:00,
2013-03-04 05:18:00,24.5,17.4,30.16,WNW,284,0.0,0.0,74,0.00,,,0.00,0,Wunderground v.1.15,2013-03-04 10:18:00,
2013-03-04 05:24:00,24.4,17.3,30.17,WNW,284,0.0,0.0,74,0.00,,,0.00,0,Wunderground v.1.15,2013-03-04 10:24:00,
2013-03-04 05:29:00,24.2,17.4,30.17,WNW,284,0.0,0.0,75,0.00,,,0.00,0,Wunderground v.1.15,2013-03-04 10:29:00,
2013-03-04 05:36:00,23.9,17.1,30.17,WNW,303,0.0,2.0,75,0.00,,,0.00,0,Wunderground v.1.15,2013-03-04 10:36:00,
2013-03-04 05:42:00,23.6,16.8,30.17,WNW,303,0.0,2.0,75,0.00,,,0.00,0,Wunderground v.1.15,2013-03-04 10:42:00,
2013-03-04 05:48:00,23.5,17.0,30.18,WNW,303,0.0,2.0,76,0.00,,,0.00,0,Wunderground v.1.15,2013-03-04 10:48:00,
2013-03-04 05:54:00,23.3,17.2,30.18,WNW,303,0.0,2.0,77,0.00,,,0.00,0,Wunderground v.1.15,2013-03-04 10:54:00,
2013-03-04 06:00:00,23.3,17.2,30.18,WNW,303,0.0,0.0,77,0.00,,,0.00,0,Wunderground v.1.15,2013-03-04 11:00:00,
2013-03-04 06:06:00,23.3,17.2,30.19,WNW,303,0.0,0.0,77,0.00,,,0.00,0,Wunderground v.1.15,2013-03-04 11:06:00,
2013-03-04 06:12:00,23.5,17.3,30.19,WNW,303,0.0,0.0,77,0.00,,,0.00,0,Wunderground v.1.15,2013-03-04 11:12:00,
2013-03-04 06:18:00,23.6,17.4,30.19,WNW,303,0.0,0.0,77,0.00,,,0.00,0,Wunderground v.1.15,2013-03-04 11:18:00,
2013-03-04 06:24:00,23.8,17.6,30.19,WNW,303,0.0,0.0,77,0.00,,,0.00,0,Wunderground v.1.15,2013-03-04 11:24:00,
2013-03-04 06:30:00,23.8,17.3,30.19,WNW,303,0.0,0.0,76,0.00,,,0.00,0,Wunderground v.1.15,2013-03-04 11:30:00,
2013-03-04 06:36:00,23.8,17.3,30.19,WNW,303,0.0,0.0,76,0.00,,,0.00,0,Wunderground v.1.15,2013-03-04 11:36:00,
2013-03-04 06:42:00,23.6,17.1,30.19,WNW,303,0.0,0.0,76,0.00,,,0.00,0,Wunderground v.1.15,2013-03-04 11:42:00,
2013-03-04 06:48:00,23.5,17.0,30.19,WNW,303,0.0,0.0,76,0.00,,,0.00,0,Wunderground v.1.15,2013-03-04 11:48:00,
2013-03-04 06:54:00,23.3,16.9,30.20,WNW,303,0.0,0.0,76,0.00,,,0.00,0,Wunderground v.1.15,2013-03-04 11:54:00,
2013-03-04 07:00:00,23.2,17.1,30.20,WNW,303,0.0,0.0,77,0.00,,,0.00,5,Wunderground v.1.15,2013-03-04 12:00:00,
2013-03-04 07:06:00,23.0,16.9,30.20,WNW,303,0.0,0.0,77,0.00,,,0.00,9,Wunderground v.1.15,2013-03-04 12:06:00,
2013-03-04 07:12:00,22.9,16.8,30.20,WNW,303,0.0,0.0,77,0.00,,,0.00,12,Wunderground v.1.15,2013-03-04 12:12:00,
2013-03-04 07:18:00,22.7,16.6,30.19,WNW,303,0.0,0.0,77,0.00,,,0.00,18,Wunderground v.1.15,2013-03-04 12:18:00,
2013-03-04 07:23:00,22.5,16.4,30.19,WNW,303,0.0,0.0,77,0.00,,,0.00,21,Wunderground v.1.15,2013-03-04 12:23:00,
2013-03-04 07:30:00,22.4,16.3,30.19,WNW,303,0.0,0.0,77,0.00,,,0.00,26,Wunderground v.1.15,2013-03-04 12:30:00,
2013-03-04 07:36:00,22.4,16.6,30.19,WNW,303,0.0,2.0,78,0.00,,,0.00,33,Wunderground v.1.15,2013-03-04 12:36:00,
2013-03-04 07:42:00,22.4,16.6,30.19,WNW,303,0.0,2.0,78,0.00,,,0.00,42,Wunderground v.1.15,2013-03-04 12:42:00,
2013-03-04 07:48:00,22.5,17.3,30.19,WNW,303,0.0,2.0,80,0.00,,,0.00,54,Wunderground v.1.15,2013-03-04 12:48:00,
2013-03-04 07:54:00,23.8,18.5,30.19,WNW,303,0.0,2.0,80,0.00,,,0.00,142,Wunderground v.1.15,2013-03-04 12:54:00,
2013-03-04 08:00:00,25.7,19.2,30.19,WNW,303,0.0,0.0,76,0.00,,,0.00,171,Wunderground v.1.15,2013-03-04 13:00:00,
2013-03-04 08:06:00,26.7,19.5,30.18,WNW,291,0.0,0.0,74,0.00,,,0.00,190,Wunderground v.1.15,2013-03-04 13:06:00,
2013-03-04 08:12:00,27.3,19.8,30.19,WNW,291,0.0,0.0,73,0.00,,,0.00,209,Wunderground v.1.15,2013-03-04 13:12:00,
2013-03-04 08:18:00,27.9,20.4,30.19,WNW,291,0.0,0.0,73,0.00,,,0.00,232,Wunderground v.1.15,2013-03-04 13:18:00,
2013-03-04 08:23:00,28.5,20.3,30.19,WNW,291,0.0,0.0,71,0.00,,,0.00,253,Wunderground v.1.15,2013-03-04 13:23:00,
2013-03-04 08:30:00,29.4,20.5,30.19,WNW,291,0.0,0.0,69,0.00,,,0.00,278,Wunderground v.1.15,2013-03-04 13:30:00,
2013-03-04 08:36:00,29.1,21.2,30.19,WNW,291,0.0,0.0,72,0.00,,,0.00,297,Wunderground v.1.15,2013-03-04 13:36:00,
2013-03-04 08:42:00,29.4,21.2,30.20,West,270,0.0,0.0,71,0.00,,,0.00,320,Wunderground v.1.15,2013-03-04 13:42:00,
2013-03-04 08:48:00,30.3,22.7,30.20,West,270,0.0,0.0,73,0.00,,,0.00,345,Wunderground v.1.15,2013-03-04 13:48:00,
2013-03-04 08:54:00,30.3,22.0,30.19,West,270,0.0,0.0,71,0.00,,,0.00,364,Wunderground v.1.15,2013-03-04 13:54:00,
2013-03-04 09:00:00,30.7,22.7,30.19,West,270,0.0,0.0,72,0.00,,,0.00,388,Wunderground v.1.15,2013-03-04 14:00:00,
2013-03-04 09:06:00,31.3,23.3,30.19,West,270,0.0,0.0,72,0.00,,,0.00,403,Wunderground v.1.15,2013-03-04 14:06:00,
2013-03-04 09:12:00,31.3,22.0,30.19,WSW,258,0.0,0.0,68,0.00,,,0.00,425,Wunderground v.1.15,2013-03-04 14:12:00,
2013-03-04 09:18:00,31.6,21.2,30.19,WSW,258,0.0,0.0,65,0.00,,,0.00,446,Wunderground v.1.15,2013-03-04 14:18:00,
2013-03-04 09:24:00,31.8,22.1,30.19,SW,234,0.0,0.0,67,0.00,,,0.00,466,Wunderground v.1.15,2013-03-04 14:24:00,
2013-03-04 09:30:00,32.9,23.1,30.19,SW,234,0.0,0.0,67,0.00,,,0.00,489,Wunderground v.1.15,2013-03-04 14:30:00,
2013-03-04 09:36:00,33.1,23.0,30.19,SW,234,0.0,0.0,66,0.00,,,0.00,506,Wunderground v.1.15,2013-03-04 14:36:00,
2013-03-04 09:42:00,33.7,22.4,30.19,SW,233,0.0,0.0,63,0.00,,,0.00,526,Wunderground v.1.15,2013-03-04 14:42:00,
2013-03-04 09:47:00,34.4,21.5,30.18,South,177,0.0,0.0,59,0.00,,,0.00,540,Wunderground v.1.15,2013-03-04 14:47:00,
2013-03-04 09:54:00,35.5,21.3,30.18,South,187,0.0,0.0,56,0.00,,,0.00,563,Wunderground v.1.15,2013-03-04 14:54:00,
2013-03-04 10:00:00,35.8,20.3,30.17,SW,223,0.0,0.0,53,0.00,,,0.00,578,Wunderground v.1.15,2013-03-04 15:00:00,
2013-03-04 10:06:00,36.6,19.7,30.18,West,259,1.0,1.0,50,0.00,,,0.00,585,Wunderground v.1.15,2013-03-04 15:06:00,
2013-03-04 10:12:00,36.8,20.3,30.17,WSW,256,0.0,2.0,51,0.00,,,0.00,582,Wunderground v.1.15,2013-03-04 15:12:00,
2013-03-04 10:18:00,36.5,19.6,30.17,SW,214,0.0,2.0,50,0.00,,,0.00,626,Wunderground v.1.15,2013-03-04 15:18:00,
2013-03-04 10:24:00,37.0,19.6,30.17,SW,230,1.0,3.0,49,0.00,,,0.00,624,Wunderground v.1.15,2013-03-04 15:24:00,
2013-03-04 10:30:00,37.5,20.1,30.17,WSW,248,2.0,2.0,49,0.00,,,0.00,645,Wunderground v.1.15,2013-03-04 15:30:00,
2013-03-04 10:36:00,38.2,20.7,30.17,WSW,253,1.0,4.0,49,0.00,,,0.00,670,Wunderground v.1.15,2013-03-04 15:36:00,
2013-03-04 10:42:00,38.5,19.5,30.16,WSW,251,1.0,3.0,46,0.00,,,0.00,675,Wunderground v.1.15,2013-03-04 15:42:00,
2013-03-04 10:48:00,38.3,16.1,30.17,WSW,240,1.0,3.0,40,0.00,,,0.00,666,Wunderground v.1.15,2013-03-04 15:48:00,
2013-03-04 10:54:00,38.2,14.8,30.17,SW,233,0.0,3.0,38,0.00,,,0.00,638,Wunderground v.1.15,2013-03-04 15:54:00,
2013-03-04 11:00:00,39.1,13.1,30.16,West,259,0.0,0.0,34,0.00,,,0.00,594,Wunderground v.1.15,2013-03-04 16:00:00,
2013-03-04 11:06:00,39.5,12.7,30.16,WSW,243,0.0,2.0,33,0.00,,,0.00,550,Wunderground v.1.15,2013-03-04 16:06:00,
2013-03-04 11:12:00,39.8,15.0,30.16,West,276,1.0,2.0,36,0.00,,,0.00,520,Wunderground v.1.15,2013-03-04 16:12:00,
2013-03-04 11:17:00,39.5,13.4,30.16,WSW,237,1.0,4.0,34,0.00,,,0.00,513,Wunderground v.1.15,2013-03-04 16:17:00,
2013-03-04 11:24:00,40.3,11.3,30.15,SW,231,1.0,1.0,30,0.00,,,0.00,536,Wunderground v.1.15,2013-03-04 16:24:00,
2013-03-04 11:30:00,40.6,13.0,30.15,WSW,257,0.0,2.0,32,0.00,,,0.00,594,Wunderground v.1.15,2013-03-04 16:30:00,
2013-03-04 11:36:00,41.3,12.1,30.16,SSW,206,1.0,5.0,30,0.00,,,0.00,659,Wunderground v.1.15,2013-03-04 16:36:00,
2013-03-04 11:42:00,41.3,13.6,30.15,SW,218,1.0,5.0,32,0.00,,,0.00,731,Wunderground v.1.15,2013-03-04 16:42:00,
2013-03-04 11:48:00,41.5,14.5,30.15,SSW,213,2.0,5.0,33,0.00,,,0.00,772,Wunderground v.1.15,2013-03-04 16:48:00,
2013-03-04 11:53:00,42.6,18.7,30.15,WSW,249,2.0,5.0,38,0.00,,,0.00,798,Wunderground v.1.15,2013-03-04 16:53:00,
2013-03-04 12:00:00,42.5,10.8,30.14,SSE,151,2.0,2.0,27,0.00,,,0.00,807,Wunderground v.1.15,2013-03-04 17:00:00,
2013-03-04 12:05:00,42.9,4.5,30.15,SSE,153,1.0,2.0,20,0.00,,,0.00,809,Wunderground v.1.15,2013-03-04 17:05:00,
2013-03-04 12:12:00,43.6,2.8,30.14,WSW,256,2.0,3.0,18,0.00,,,0.00,812,Wunderground v.1.15,2013-03-04 17:12:00,
2013-03-04 12:18:00,43.5,2.7,30.14,West,268,2.0,4.0,18,0.00,,,0.00,814,Wunderground v.1.15,2013-03-04 17:18:00,
2013-03-04 12:24:00,43.8,1.7,30.14,SSW,198,2.0,2.0,17,0.00,,,0.00,816,Wunderground v.1.15,2013-03-04 17:24:00,
2013-03-04 12:30:00,43.6,2.8,30.13,SSW,201,1.0,1.0,18,0.00,,,0.00,819,Wunderground v.1.15,2013-03-04 17:30:00,
2013-03-04 12:35:00,43.9,5.3,30.13,SW,229,2.0,4.0,20,0.00,,,0.00,816,Wunderground v.1.15,2013-03-04 17:35:00,
2013-03-04 12:42:00,44.6,8.0,30.13,WSW,242,1.0,4.0,22,0.00,,,0.00,786,Wunderground v.1.15,2013-03-04 17:42:00,
2013-03-04 12:48:00,44.6,7.0,30.12,SW,228,1.0,4.0,21,0.00,,,0.00,824,Wunderground v.1.15,2013-03-04 17:48:00,
2013-03-04 12:54:00,44.8,10.1,30.11,SW,219,1.0,4.0,24,0.00,,,0.00,817,Wunderground v.1.15,2013-03-04 17:54:00,
2013-03-04 13:00:00,45.2,6.4,30.10,WSW,245,1.0,1.0,20,0.00,,,0.00,817,Wunderground v.1.15,2013-03-04 18:00:00,
2013-03-04 13:06:00,45.5,8.8,30.10,WSW,244,1.0,1.0,22,0.00,,,0.00,810,Wunderground v.1.15,2013-03-04 18:06:00,
2013-03-04 13:12:00,46.1,10.3,30.10,ESE,104,1.0,2.0,23,0.00,,,0.00,807,Wunderground v.1.15,2013-03-04 18:12:00,
2013-03-04 13:18:00,46.0,8.2,30.09,WSW,249,1.0,2.0,21,0.00,,,0.00,805,Wunderground v.1.15,2013-03-04 18:18:00,
2013-03-04 13:23:00,47.0,9.0,30.08,West,263,1.0,4.0,21,0.00,,,0.00,810,Wunderground v.1.15,2013-03-04 18:23:00,
2013-03-04 13:30:00,46.7,10.8,30.08,WSW,247,2.0,2.0,23,0.00,,,0.00,793,Wunderground v.1.15,2013-03-04 18:30:00,
2013-03-04 13:32:00,46.7,13.6,30.07,SW,230,2.0,3.0,26,0.00,,,0.00,789,Wunderground v.1.15,2013-03-04 18:32:00,
2013-03-04 13:36:00,46.7,13.6,30.07,SW,233,1.0,6.0,26,0.00,,,0.00,788,Wunderground v.1.15,2013-03-04 18:36:00,
2013-03-04 13:40:00,47.3,14.1,30.07,West,266,1.0,6.0,26,0.00,,,0.00,786,Wunderground v.1.15,2013-03-04 18:40:00,
2013-03-04 13:46:00,47.0,11.1,30.07,WSW,257,1.0,6.0,23,0.00,,,0.00,780,Wunderground v.1.15,2013-03-04 18:46:00,
2013-03-04 13:52:00,47.4,12.4,30.07,West,268,2.0,2.0,24,0.00,,,0.00,765,Wunderground v.1.15,2013-03-04 18:52:00,
2013-03-04 13:58:00,47.9,11.8,30.07,SW,230,1.0,6.0,23,0.00,,,0.00,763,Wunderground v.1.15,2013-03-04 18:58:00,
2013-03-04 14:04:00,48.0,11.9,30.07,West,262,1.0,3.0,23,0.00,,,0.00,613,Wunderground v.1.15,2013-03-04 19:04:00,
2013-03-04 14:10:00,48.2,13.0,30.06,SSW,202,1.0,1.0,24,0.00,,,0.00,577,Wunderground v.1.15,2013-03-04 19:10:00,
2013-03-04 14:16:00,49.1,14.7,30.06,WSW,244,2.0,3.0,25,0.00,,,0.00,724,Wunderground v.1.15,2013-03-04 19:16:00,
2013-03-04 14:22:00,49.2,15.7,30.05,WSW,257,2.0,4.0,26,0.00,,,0.00,719,Wunderground v.1.15,2013-03-04 19:22:00,
2013-03-04 14:28:00,48.9,13.6,30.05,WSW,248,2.0,4.0,24,0.00,,,0.00,649,Wunderground v.1.15,2013-03-04 19:28:00,
2013-03-04 14:34:00,48.3,14.1,30.05,SSW,207,1.0,5.0,25,0.00,,,0.00,309,Wunderground v.1.15,2013-03-04 19:34:00,
2013-03-04 14:40:00,48.5,15.1,30.05,SW,215,0.0,5.0,26,0.00,,,0.00,364,Wunderground v.1.15,2013-03-04 19:40:00,
2013-03-04 14:46:00,48.5,16.0,30.05,West,278,0.0,5.0,27,0.00,,,0.00,334,Wunderground v.1.15,2013-03-04 19:46:00,
2013-03-04 14:52:00,49.1,14.7,30.05,NNE,27,0.0,5.0,25,0.00,,,0.00,366,Wunderground v.1.15,2013-03-04 19:52:00,
2013-03-04 14:58:00,49.2,17.4,30.04,SSW,197,0.0,5.0,28,0.00,,,0.00,517,Wunderground v.1.15,2013-03-04 19:58:00,
2013-03-04 15:04:00,51.6,17.8,30.03,WNW,284,1.0,3.0,26,0.00,,,0.00,861,Wunderground v.1.15,2013-03-04 20:04:00,
2013-03-04 15:10:00,51.9,17.1,30.04,West,280,1.0,1.0,25,0.00,,,0.00,809,Wunderground v.1.15,2013-03-04 20:10:00,
2013-03-04 15:16:00,51.4,18.5,30.04,WSW,243,1.0,3.0,27,0.00,,,0.00,728,Wunderground v.1.15,2013-03-04 20:16:00,
2013-03-04 15:21:00,52.0,19.0,30.04,West,275,2.0,4.0,27,0.00,,,0.00,671,Wunderground v.1.15,2013-03-04 20:21:00,
2013-03-04 15:28:00,51.6,18.7,30.04,West,280,2.0,5.0,27,0.00,,,0.00,301,Wunderground v.1.15,2013-03-04 20:28:00,
2013-03-04 15:34:00,51.9,18.0,30.03,WNW,285,1.0,6.0,26,0.00,,,0.00,578,Wunderground v.1.15,2013-03-04 20:34:00,
2013-03-04 15:40:00,51.4,16.7,30.04,West,276,2.0,2.0,25,0.00,,,0.00,476,Wunderground v.1.15,2013-03-04 20:40:00,
2013-03-04 15:46:00,51.6,17.8,30.03,WNW,290,1.0,6.0,26,0.00,,,0.00,425,Wunderground v.1.15,2013-03-04 20:46:00,
2013-03-04 15:52:00,50.7,17.9,30.03,WNW,303,1.0,6.0,27,0.00,,,0.00,160,Wunderground v.1.15,2013-03-04 20:52:00,
2013-03-04 15:58:00,50.4,18.5,30.03,NW,318,0.0,6.0,28,0.00,,,0.00,225,Wunderground v.1.15,2013-03-04 20:58:00,
2013-03-04 16:03:00,51.0,18.1,30.03,NW,307,0.0,2.0,27,0.00,,,0.00,207,Wunderground v.1.15,2013-03-04 21:03:00,
2013-03-04 16:10:00,50.5,17.7,30.03,NW,322,1.0,1.0,27,0.00,,,0.00,148,Wunderground v.1.15,2013-03-04 21:10:00,
2013-03-04 16:16:00,50.2,18.3,30.04,WNW,285,0.0,1.0,28,0.00,,,0.00,156,Wunderground v.1.15,2013-03-04 21:16:00,
2013-03-04 16:21:00,50.2,18.3,30.03,WNW,285,0.0,0.0,28,0.00,,,0.00,148,Wunderground v.1.15,2013-03-04 21:21:00,
2013-03-04 16:28:00,50.4,19.3,30.03,West,264,0.0,2.0,29,0.00,,,0.00,121,Wunderground v.1.15,2013-03-04 21:28:00,
2013-03-04 16:34:00,50.2,19.1,30.03,WSW,255,1.0,9.0,29,0.00,,,0.00,116,Wunderground v.1.15,2013-03-04 21:34:00,
2013-03-04 16:40:00,50.2,21.4,30.03,WSW,255,1.0,1.0,32,0.00,,,0.00,90,Wunderground v.1.15,2013-03-04 21:40:00,
2013-03-04 16:46:00,50.2,18.3,30.03,West,260,1.0,9.0,28,0.00,,,0.00,91,Wunderground v.1.15,2013-03-04 21:46:00,
2013-03-04 16:52:00,50.2,18.3,30.03,West,260,1.0,9.0,28,0.00,,,0.00,69,Wunderground v.1.15,2013-03-04 21:52:00,
2013-03-04 16:58:00,50.2,19.1,30.03,West,260,0.0,9.0,29,0.00,,,0.00,54,Wunderground v.1.15,2013-03-04 21:58:00,
2013-03-04 17:04:00,50.1,21.3,30.03,West,260,0.0,0.0,32,0.00,,,0.00,60,Wunderground v.1.15,2013-03-04 22:04:00,
2013-03-04 17:10:00,50.1,21.3,30.03,West,260,0.0,0.0,32,0.00,,,0.00,69,Wunderground v.1.15,2013-03-04 22:10:00,
2013-03-04 17:16:00,50.1,21.3,30.02,West,260,0.0,0.0,32,0.00,,,0.00,83,Wunderground v.1.15,2013-03-04 22:16:00,
2013-03-04 17:22:00,50.1,22.1,30.02,West,260,0.0,0.0,33,0.00,,,0.00,88,Wunderground v.1.15,2013-03-04 22:22:00,
2013-03-04 17:28:00,50.1,22.1,30.03,West,260,0.0,0.0,33,0.00,,,0.00,67,Wunderground v.1.15,2013-03-04 22:28:00,
2013-03-04 17:34:00,50.1,21.3,30.03,West,260,0.0,4.0,32,0.00,,,0.00,54,Wunderground v.1.15,2013-03-04 22:34:00,
2013-03-04 17:40:00,50.1,22.1,30.03,West,260,0.0,4.0,33,0.00,,,0.00,65,Wunderground v.1.15,2013-03-04 22:40:00,
2013-03-04 17:46:00,50.1,22.8,30.02,West,260,0.0,4.0,34,0.00,,,0.00,56,Wunderground v.1.15,2013-03-04 22:46:00,
2013-03-04 17:52:00,50.1,22.1,30.02,West,260,0.0,4.0,33,0.00,,,0.00,53,Wunderground v.1.15,2013-03-04 22:52:00,
2013-03-04 17:58:00,50.1,21.3,30.03,West,260,0.0,4.0,32,0.00,,,0.00,58,Wunderground v.1.15,2013-03-04 22:58:00,
2013-03-04 18:04:00,49.8,22.5,30.03,West,260,0.0,0.0,34,0.00,,,0.00,35,Wunderground v.1.15,2013-03-04 23:04:00,
2013-03-04 18:09:00,49.5,21.5,30.02,West,260,0.0,0.0,33,0.00,,,0.00,19,Wunderground v.1.15,2013-03-04 23:09:00,
2013-03-04 18:16:00,48.9,23.1,30.02,ENE,58,0.0,0.0,36,0.00,,,0.00,9,Wunderground v.1.15,2013-03-04 23:16:00,
2013-03-04 18:22:00,48.5,24.0,30.02,ENE,58,0.0,0.0,38,0.00,,,0.00,7,Wunderground v.1.15,2013-03-04 23:22:00,
2013-03-04 18:28:00,48.0,24.8,30.02,NE,46,0.0,2.0,40,0.00,,,0.00,0,Wunderground v.1.15,2013-03-04 23:28:00,
2013-03-04 18:34:00,47.4,24.9,30.01,NE,38,1.0,1.0,41,0.00,,,0.00,0,Wunderground v.1.15,2013-03-04 23:34:00,
2013-03-04 18:40:00,47.1,25.2,30.02,NE,37,1.0,1.0,42,0.00,,,0.00,0,Wunderground v.1.15,2013-03-04 23:40:00,
2013-03-04 18:46:00,46.8,24.3,30.02,NE,38,1.0,1.0,41,0.00,,,0.00,0,Wunderground v.1.15,2013-03-04 23:46:00,
2013-03-04 18:52:00,46.7,24.2,30.02,NE,38,0.0,1.0,41,0.00,,,0.00,0,Wunderground v.1.15,2013-03-04 23:52:00,
2013-03-04 18:58:00,46.5,22.8,30.02,NE,38,0.0,1.0,39,0.00,,,0.00,0,Wunderground v.1.15,2013-03-04 23:58:00,
2013-03-04 19:04:00,46.4,22.8,30.02,NE,38,0.0,0.0,39,0.00,,,0.00,0,Wunderground v.1.15,2013-03-05 00:04:00,
2013-03-04 19:10:00,46.4,23.4,30.02,NE,38,0.0,0.0,40,0.00,,,0.00,0,Wunderground v.1.15,2013-03-05 00:10:00,
2013-03-04 19:16:00,46.2,23.2,30.02,NE,38,0.0,0.0,40,0.00,,,0.00,0,Wunderground v.1.15,2013-03-05 00:16:00,
2013-03-04 19:22:00,46.0,23.0,30.01,NE,38,0.0,0.0,40,0.00,,,0.00,0,Wunderground v.1.15,2013-03-05 00:22:00,
2013-03-04 19:28:00,45.5,23.1,30.01,NE,38,0.0,0.0,41,0.00,,,0.00,0,Wunderground v.1.15,2013-03-05 00:28:00,
2013-03-04 19:34:00,45.4,23.0,30.01,NE,37,0.0,2.0,41,0.00,,,0.00,0,Wunderground v.1.15,2013-03-05 00:34:00,
2013-03-04 19:40:00,45.4,22.5,30.01,NNE,33,1.0,3.0,40,0.00,,,0.00,0,Wunderground v.1.15,2013-03-05 00:40:00,
2013-03-04 19:46:00,45.4,22.5,30.01,NNE,29,1.0,3.0,40,0.00,,,0.00,0,Wunderground v.1.15,2013-03-05 00:46:00,
2013-03-04 19:51:00,45.4,21.2,30.01,NNE,27,0.0,3.0,38,0.00,,,0.00,0,Wunderground v.1.15,2013-03-05 00:51:00,
2013-03-04 19:58:00,45.2,21.7,30.01,NNE,27,0.0,3.0,39,0.00,,,0.00,0,Wunderground v.1.15,2013-03-05 00:58:00,
2013-03-04 20:04:00,45.1,21.6,30.00,NE,35,0.0,0.0,39,0.00,,,0.00,0,Wunderground v.1.15,2013-03-05 01:04:00,
2013-03-04 20:10:00,44.9,21.4,30.00,NE,36,0.0,2.0,39,0.00,,,0.00,0,Wunderground v.1.15,2013-03-05 01:10:00,
2013-03-04 20:16:00,44.8,22.5,29.99,NNE,32,1.0,3.0,41,0.00,,,0.00,0,Wunderground v.1.15,2013-03-05 01:16:00,
2013-03-04 20:21:00,44.3,22.6,29.99,NNE,23,2.0,3.0,42,0.00,,,0.00,0,Wunderground v.1.15,2013-03-05 01:21:00,
2013-03-04 20:28:00,44.1,23.0,29.99,NNE,17,2.0,3.0,43,0.00,,,0.00,0,Wunderground v.1.15,2013-03-05 01:28:00,
2013-03-04 20:34:00,44.2,22.5,29.99,ENE,63,3.0,4.0,42,0.00,,,0.00,0,Wunderground v.1.15,2013-03-05 01:34:00,
2013-03-04 20:40:00,44.2,22.5,29.99,NE,45,3.0,3.0,42,0.00,,,0.00,0,Wunderground v.1.15,2013-03-05 01:40:00,
2013-03-04 20:46:00,44.2,22.5,29.99,NNE,30,3.0,5.0,42,0.00,,,0.00,0,Wunderground v.1.15,2013-03-05 01:46:00,
2013-03-04 20:51:00,44.2,22.5,29.99,NE,44,3.0,3.0,42,0.00,,,0.00,0,Wunderground v.1.15,2013-03-05 01:51:00,
2013-03-04 20:58:00,44.1,23.0,29.98,NE,45,3.0,3.0,43,0.00,,,0.00,0,Wunderground v.1.15,2013-03-05 01:58:00,
2013-03-04 21:04:00,43.9,22.3,29.99,NE,43,3.0,3.0,42,0.00,,,0.00,0,Wunderground v.1.15,2013-03-05 02:04:00,
2013-03-04 21:09:00,43.9,22.3,29.99,NE,47,3.0,3.0,42,0.00,,,0.00,0,Wunderground v.1.15,2013-03-05 02:09:00,
2013-03-04 21:16:00,44.1,21.9,29.99,NNE,21,3.0,4.0,41,0.00,,,0.00,0,Wunderground v.1.15,2013-03-05 02:16:00,
2013-03-04 21:22:00,44.1,22.4,29.99,NE,54,2.0,6.0,42,0.00,,,0.00,0,Wunderground v.1.15,2013-03-05 02:22:00,
2013-03-04 21:28:00,44.2,22.0,29.99,NE,49,3.0,6.0,41,0.00,,,0.00,0,Wunderground v.1.15,2013-03-05 02:28:00,
2013-03-04 21:34:00,44.2,22.0,29.99,NE,47,3.0,5.0,41,0.00,,,0.00,0,Wunderground v.1.15,2013-03-05 02:34:00,
2013-03-04 21:39:00,44.2,22.0,29.99,ENE,77,2.0,2.0,41,0.00,,,0.00,0,Wunderground v.1.15,2013-03-05 02:39:00,
2013-03-04 21:46:00,44.2,22.0,29.99,NE,42,1.0,5.0,41,0.00,,,0.00,0,Wunderground v.1.15,2013-03-05 02:46:00,
2013-03-04 21:52:00,44.2,22.5,30.00,NE,47,1.0,5.0,42,0.00,,,0.00,0,Wunderground v.1.15,2013-03-05 02:52:00,
2013-03-04 21:57:00,44.2,20.8,30.00,NE,35,1.0,5.0,39,0.00,,,0.00,0,Wunderground v.1.15,2013-03-05 02:57:00,
2013-03-04 22:04:00,44.5,21.0,29.99,NE,43,2.0,2.0,39,0.00,,,0.00,0,Wunderground v.1.15,2013-03-05 03:04:00,
2013-03-04 22:10:00,44.5,21.6,29.99,NE,45,1.0,1.0,40,0.00,,,0.00,0,Wunderground v.1.15,2013-03-05 03:10:00,
2013-03-04 22:16:00,44.3,22.6,29.99,NE,34,1.0,2.0,42,0.00,,,0.00,0,Wunderground v.1.15,2013-03-05 03:16:00,
2013-03-04 22:22:00,44.2,22.0,29.99,NE,56,2.0,2.0,41,0.00,,,0.00,0,Wunderground v.1.15,2013-03-05 03:22:00,
2013-03-04 22:28:00,44.1,21.9,29.99,NE,41,1.0,3.0,41,0.00,,,0.00,0,Wunderground v.1.15,2013-03-05 03:28:00,
2013-03-04 22:34:00,44.1,21.9,29.99,NNE,33,1.0,6.0,41,0.00,,,0.00,0,Wunderground v.1.15,2013-03-05 03:34:00,
2013-03-04 22:39:00,44.1,21.3,30.00,NNE,30,1.0,1.0,40,0.00,,,0.00,0,Wunderground v.1.15,2013-03-05 03:39:00,
2013-03-04 22:46:00,44.1,21.3,30.00,North,360,1.0,6.0,40,0.00,,,0.00,0,Wunderground v.1.15,2013-03-05 03:46:00,
2013-03-04 22:52:00,43.9,21.1,30.00,North,360,0.0,6.0,40,0.00,,,0.00,0,Wunderground v.1.15,2013-03-05 03:52:00,
2013-03-04 22:57:00,43.9,21.1,30.00,North,360,0.0,6.0,40,0.00,,,0.00,0,Wunderground v.1.15,2013-03-05 03:57:00,
2013-03-04 23:04:00,43.8,21.6,30.01,North,360,0.0,0.0,41,0.00,,,0.00,0,Wunderground v.1.15,2013-03-05 04:04:00,
2013-03-04 23:10:00,43.6,21.4,30.01,North,360,0.0,0.0,41,0.00,,,0.00,0,Wunderground v.1.15,2013-03-05 04:10:00,
2013-03-04 23:16:00,43.3,21.7,30.02,North,360,0.0,0.0,42,0.00,,,0.00,0,Wunderground v.1.15,2013-03-05 04:16:00,
2013-03-04 23:22:00,42.9,21.4,30.02,North,360,0.0,0.0,42,0.00,,,0.00,0,Wunderground v.1.15,2013-03-05 04:22:00,
2013-03-04 23:28:00,42.6,21.1,30.02,North,360,0.0,0.0,42,0.00,,,0.00,0,Wunderground v.1.15,2013-03-05 04:28:00,
2013-03-04 23:34:00,42.5,22.6,30.01,North,360,0.0,4.0,45,0.00,,,0.00,0,Wunderground v.1.15,2013-03-05 04:34:00,
2013-03-04 23:40:00,42.2,22.4,30.01,North,360,0.0,4.0,45,0.00,,,0.00,0,Wunderground v.1.15,2013-03-05 04:40:00,
2013-03-04 23:45:00,41.6,23.3,30.01,North,360,0.0,4.0,48,0.00,,,0.00,0,Wunderground v.1.15,2013-03-05 04:45:00,
2013-03-04 23:52:00,41.2,23.0,30.01,North,356,0.0,4.0,48,0.00,,,0.00,0,Wunderground v.1.15,2013-03-05 04:52:00,
2013-03-04 23:58:00,40.9,22.2,30.01,North,356,0.0,4.0,47,0.00,,,0.00,0,Wunderground v.1.15,2013-03-05 04:58:00,